EW6790 Weather Reports


time (UTC)temp
C
wind
direction
speed
KPH
gust
KPH
rain 1hr
cm
rain 24hr
cm
rain mn
cm
humidity
%
barometer
mb
20220927011501 13 321 3.2 6.4 0.00 0.00 0.00 55 1017.3
20220927010042 13 320 3.2 8.0 0.00 0.00 0.00 53 1017.2
20220927004542 13 324 4.8 9.7 0.00 0.00 0.00 52 1017.1
20220927003027 14 325 6.4 9.7 0.00 0.00 0.00 50 1016.9
20220927001529 15 326 6.4 11.3 0.00 0.00 0.00 48 1016.9
20220927000011 16 333 8.0 14.5 0.00 0.00 0.00 46 1016.7
20220926234504 17 317 6.4 17.7 0.00 0.00 0.00 45 1016.6
20220926233059 17 327 4.8 11.3 0.00 0.00 0.00 43 1016.6
20220926231548 18 320 12.9 24.1 0.00 0.00 0.00 40 1016.6
20220926230029 18 324 9.7 20.9 0.00 0.00 0.00 39 1016.4
20220926224528 18 319 9.7 20.9 0.00 0.00 0.00 38 1016.4
20220926223011 18 300 14.5 30.6 0.00 0.00 0.00 37 1016.2
20220926221510 18 331 14.5 22.5 0.00 0.00 0.00 36 1016.3
20220926220115 18 332 17.7 30.6 0.00 0.00 0.00 37 1016.4
20220926214554 18 330 9.7 25.7 0.00 0.00 0.00 37 1016.4
20220926213034 18 318 16.1 27.4 0.00 0.00 0.00 36 1016.5
20220926211533 19 301 14.5 35.4 0.00 0.00 0.00 37 1016.6
20220926210013 19 343 11.3 38.6 0.00 0.00 0.00 37 1016.6
20220926204520 18 341 14.5 29.0 0.00 0.00 0.00 36 1016.6
20220926203057 18 323 14.5 35.4 0.00 0.00 0.00 36 1016.6
20220926201552 18 331 14.5 30.6 0.00 0.00 0.00 36 1016.6
20220926200027 18 316 19.3 33.8 0.00 0.00 0.00 37 1016.6
20220926194524 18 331 11.3 30.6 0.00 0.00 0.00 40 1016.7
20220926193006 18 310 19.3 40.2 0.00 0.00 0.00 38 1016.8
20220926191510 18 317 19.3 37.0 0.00 0.00 0.00 39 1016.8
20220926190051 17 348 17.7 33.8 0.00 0.00 0.00 40 1017.0
20220926184552 17 327 11.3 40.2 0.00 0.00 0.00 43 1017.2
20220926183027 17 325 9.7 32.2 0.00 0.00 0.00 43 1017.3
20220926181539 17 352 17.7 35.4 0.00 0.00 0.00 43 1017.5
20220926180004 16 293 14.5 35.4 0.00 0.00 0.00 43 1017.7
20220926174500 16 311 9.7 32.2 0.00 0.00 0.00 44 1017.7
20220926173050 16 330 8.0 22.5 0.00 0.00 0.00 44 1017.8
20220926171542 16 343 9.7 22.5 0.00 0.00 0.00 45 1017.9
20220926170035 15 305 12.9 27.4 0.00 0.00 0.00 45 1018.2
20220926164525 14 323 17.7 29.0 0.00 0.00 0.00 46 1018.2
20220926163213 13 293 16.1 30.6 0.00 0.00 0.00 49 1018.2
20220926161559 13 315 9.7 27.4 0.00 0.00 0.00 57 1018.4
20220926160032 13 328 11.3 30.6 0.00 0.00 0.00 57 1018.5
20220926154542 12 338 9.7 27.4 0.00 0.00 0.00 60 1018.5
20220926153009 12 315 9.7 20.9 0.00 0.00 0.00 63 1018.4
20220926151506 11 314 9.7 24.1 0.00 0.00 0.00 66 1018.5
20220926150105 11 325 6.4 16.1 0.00 0.00 0.00 68 1018.4
20220926144542 11 289 4.8 16.1 0.00 0.00 0.00 69 1018.4
20220926143039 11 304 4.8 12.9 0.00 0.00 0.00 71 1018.2
20220926141518 10 304 3.2 12.9 0.00 0.00 0.00 73 1018.1
20220926140014 10 304 4.8 11.3 0.00 0.00 0.00 74 1017.8
20220926134602 9 297 3.2 11.3 0.00 0.00 0.00 76 1017.6
20220926133050 8 314 3.2 11.3 0.00 0.00 0.00 78 1017.5
20220926131534 7 308 1.6 6.4 0.00 0.00 0.00 81 1017.3
20220926130034 7 317 1.6 4.8 0.00 0.00 0.00 83 1017.2
20220926124522 6 302 1.6 4.8 0.00 0.00 0.00 83 1017.0
20220926123008 7 303 1.6 6.4 0.00 0.00 0.00 82 1016.9
20220926121549 6 309 1.6 4.8 0.00 0.00 0.00 84 1016.8
20220926120100 6 299 1.6 6.4 0.00 0.00 0.00 84 1016.7
20220926114529 6 307 1.6 6.4 0.00 0.00 0.00 83 1016.7
20220926113029 6 307 1.6 6.4 0.00 0.00 0.00 83 1016.6
20220926111515 6 314 1.6 6.4 0.00 0.00 0.00 84 1016.6
20220926110017 6 307 1.6 4.8 0.00 0.00 0.00 85 1016.3
20220926104549 6 275 1.6 4.8 0.00 0.00 0.00 84 1016.2
20220926103049 6 292 1.6 4.8 0.00 0.00 0.00 83 1016.2
20220926101536 6 304 1.6 6.4 0.00 0.00 0.00 83 1016.1
20220926100024 6 283 1.6 4.8 0.00 0.00 0.00 83 1016.0
20220926094506 6 307 1.6 4.8 0.00 0.00 0.00 83 1015.9
20220926093004 6 311 1.6 4.8 0.00 0.00 0.00 82 1015.8
20220926091544 7 306 1.6 6.4 0.00 0.00 0.00 81 1015.8
20220926090050 7 311 1.6 6.4 0.00 0.00 0.00 79 1015.7
20220926084525 8 310 3.2 6.4 0.00 0.00 0.00 76 1015.6
20220926083024 8 312 1.6 6.4 0.00 0.00 0.00 76 1015.5
20220926081523 8 309 3.2 6.4 0.00 0.00 0.00 76 1015.5
20220926080012 7 313 1.6 6.4 0.00 0.00 0.00 76 1015.6
20220926074557 7 301 1.6 6.4 0.00 0.00 0.00 77 1015.5
20220926073104 7 316 1.6 6.4 0.00 0.00 0.00 79 1015.6
20220926071531 7 286 3.2 8.0 0.00 0.00 0.00 81 1015.6
20220926070026 7 285 3.2 6.4 0.00 0.00 0.00 79 1015.6
20220926064525 8 283 1.6 4.8 0.00 0.00 0.00 76 1015.7
20220926063026 8 320 1.6 6.4 0.00 0.00 0.00 74 1015.6
20220926061521 8 300 1.6 6.4 0.00 0.00 0.00 76 1015.5
20220926060021 8 299 1.6 6.4 0.00 0.00 0.00 77 1015.3
20220926054523 8 278 3.2 6.4 0.00 0.00 0.00 77 1015.5
20220926053016 8 268 1.6 4.8 0.00 0.00 0.00 75 1015.6
20220926051607 8 293 1.6 4.8 0.00 0.00 0.00 74 1015.6
20220926050107 8 306 1.6 4.8 0.00 0.00 0.00 73 1015.5
20220926044535 9 300 1.6 3.2 0.00 0.00 0.00 72 1015.4
20220926043102 9 309 1.6 6.4 0.00 0.00 0.00 72 1015.4
20220926041512 9 285 1.6 4.8 0.00 0.00 0.00 71 1015.3
20220926040028 10 302 1.6 4.8 0.00 0.00 0.00 69 1015.3
20220926034627 10 291 1.6 4.8 0.00 0.00 0.00 67 1015.1
20220926033056 11 297 1.6 4.8 0.00 0.00 0.00 63 1014.9
20220926031540 11 311 1.6 4.8 0.00 0.00 0.00 62 1014.9
20220926030045 12 309 1.6 6.4 0.00 0.00 0.00 61 1014.8
20220926024513 12 301 3.2 4.8 0.00 0.00 0.00 59 1014.7
20220926023012 13 308 3.2 9.7 0.00 0.00 0.00 57 1014.7
20220926021557 13 316 1.6 6.4 0.00 0.00 0.00 58 1014.7
20220926020106 13 301 3.2 6.4 0.00 0.00 0.00 59 1014.4
20220926014534 13 314 3.2 6.4 0.00 0.00 0.00 59 1014.2
20220926013034 13 297 3.2 6.4 0.00 0.00 0.00 58 1014.2